Time,TemperatureF,DewpointF,PressureIn,WindDirection,WindDirectionDegrees,WindSpeedMPH,WindSpeedGustMPH,Humidity,HourlyPrecipIn,Conditions,Clouds,dailyrainin,SoftwareType,DateUTC
2014-01-26 00:02:00,22.0,8.0,29.66,WNW,298,8.0,18.0,54,0.00,,,0.00,weatherlink.com 1.10,2014-01-26 05:02:00,
2014-01-26 00:17:00,21.8,7.0,29.67,West,271,7.0,16.0,53,0.00,,,0.00,weatherlink.com 1.10,2014-01-26 05:17:00,
2014-01-26 00:32:00,21.9,7.0,29.68,West,277,8.0,22.0,52,0.00,,,0.00,weatherlink.com 1.10,2014-01-26 05:32:00,
2014-01-26 00:47:00,21.6,6.0,29.69,WNW,290,8.0,20.0,51,0.00,,,0.00,weatherlink.com 1.10,2014-01-26 05:47:00,
2014-01-26 01:02:00,21.3,5.0,29.70,West,262,10.0,19.0,49,0.00,,,0.00,weatherlink.com 1.10,2014-01-26 06:02:00,
2014-01-26 01:17:00,21.0,4.0,29.71,SW,236,13.0,23.0,47,0.00,,,0.00,weatherlink.com 1.10,2014-01-26 06:17:00,
2014-01-26 01:33:00,20.8,3.0,29.73,West,281,11.0,28.0,47,0.00,,,0.00,weatherlink.com 1.10,2014-01-26 06:33:00,
2014-01-26 01:48:00,20.2,2.0,29.74,WNW,284,5.0,20.0,46,0.00,,,0.00,weatherlink.com 1.10,2014-01-26 06:48:00,
2014-01-26 02:03:00,19.8,2.0,29.75,West,264,19.0,25.0,46,0.00,,,0.00,weatherlink.com 1.10,2014-01-26 07:03:00,
2014-01-26 02:18:00,19.3,2.0,29.76,WSW,249,12.0,13.0,48,0.00,,,0.00,weatherlink.com 1.10,2014-01-26 07:18:00,
2014-01-26 02:33:00,18.8,2.0,29.76,West,273,7.0,19.0,47,0.00,,,0.00,weatherlink.com 1.10,2014-01-26 07:33:00,
2014-01-26 02:48:00,18.3,1.0,29.77,West,274,11.0,18.0,47,0.00,,,0.00,weatherlink.com 1.10,2014-01-26 07:48:00,
2014-01-26 03:03:00,18.1,1.0,29.77,West,277,5.0,17.0,47,0.00,,,0.00,weatherlink.com 1.10,2014-01-26 08:03:00,
2014-01-26 03:18:00,17.7,1.0,29.78,NW,315,4.0,11.0,47,0.00,,,0.00,weatherlink.com 1.10,2014-01-26 08:18:00,
2014-01-26 03:33:00,17.4,1.0,29.79,West,269,5.0,10.0,48,0.00,,,0.00,weatherlink.com 1.10,2014-01-26 08:33:00,
2014-01-26 03:48:00,17.1,0.0,29.79,WSW,252,7.0,16.0,48,0.00,,,0.00,weatherlink.com 1.10,2014-01-26 08:48:00,
2014-01-26 04:03:00,16.8,0.0,29.80,West,264,6.0,12.0,48,0.00,,,0.00,weatherlink.com 1.10,2014-01-26 09:03:00,
2014-01-26 04:18:00,16.4,1.0,29.80,NNW,333,5.0,9.0,50,0.00,,,0.00,weatherlink.com 1.10,2014-01-26 09:18:00,
2014-01-26 04:33:00,16.0,1.0,29.80,WNW,288,4.0,10.0,52,0.00,,,0.00,weatherlink.com 1.10,2014-01-26 09:33:00,
2014-01-26 04:48:00,15.8,1.0,29.81,West,266,4.0,9.0,53,0.00,,,0.00,weatherlink.com 1.10,2014-01-26 09:48:00,
2014-01-26 05:03:00,15.7,2.0,29.82,NW,323,2.0,12.0,55,0.00,,,0.00,weatherlink.com 1.10,2014-01-26 10:03:00,
2014-01-26 05:19:00,15.4,3.0,29.83,WSW,253,0.0,7.0,57,0.00,,,0.00,weatherlink.com 1.10,2014-01-26 10:19:00,
2014-01-26 05:33:00,15.1,3.0,29.84,SSE,160,0.0,4.0,59,0.00,,,0.00,weatherlink.com 1.10,2014-01-26 10:33:00,
2014-01-26 05:48:00,15.1,3.0,29.84,West,275,2.0,4.0,59,0.00,,,0.00,weatherlink.com 1.10,2014-01-26 10:48:00,
2014-01-26 06:03:00,15.2,4.0,29.83,WNW,290,4.0,10.0,61,0.00,,,0.00,weatherlink.com 1.10,2014-01-26 11:03:00,
2014-01-26 06:18:00,15.0,4.0,29.83,West,269,1.0,9.0,62,0.00,,,0.00,weatherlink.com 1.10,2014-01-26 11:18:00,
2014-01-26 06:33:00,14.2,4.0,29.84,SW,222,1.0,1.0,63,0.00,,,0.00,weatherlink.com 1.10,2014-01-26 11:33:00,
2014-01-26 06:48:00,13.4,4.0,29.86,South,184,0.0,3.0,65,0.00,,,0.00,weatherlink.com 1.10,2014-01-26 11:48:00,
2014-01-26 07:04:00,12.0,3.0,29.87,ESE,122,1.0,3.0,67,0.00,,,0.00,weatherlink.com 1.10,2014-01-26 12:04:00,
2014-01-26 07:19:00,11.9,3.0,29.87,SW,233,1.0,4.0,67,0.00,,,0.00,weatherlink.com 1.10,2014-01-26 12:19:00,
2014-01-26 07:34:00,12.6,3.0,29.87,SW,218,4.0,4.0,65,0.00,,,0.00,weatherlink.com 1.10,2014-01-26 12:34:00,
2014-01-26 07:49:00,13.3,2.0,29.88,WNW,287,1.0,3.0,62,0.00,,,0.00,weatherlink.com 1.10,2014-01-26 12:49:00,
2014-01-26 08:04:00,14.4,3.0,29.89,SSE,155,2.0,5.0,61,0.00,,,0.00,weatherlink.com 1.10,2014-01-26 13:04:00,
2014-01-26 08:19:00,15.6,3.0,29.88,SW,236,0.0,2.0,58,0.00,,,0.00,weatherlink.com 1.10,2014-01-26 13:19:00,
2014-01-26 08:34:00,15.8,4.0,29.87,NE,50,2.0,4.0,59,0.00,,,0.00,weatherlink.com 1.10,2014-01-26 13:34:00,
2014-01-26 08:49:00,16.9,5.0,29.87,ESE,113,0.0,5.0,60,0.00,,,0.00,weatherlink.com 1.10,2014-01-26 13:49:00,
2014-01-26 09:04:00,18.2,5.0,29.88,NNW,331,0.0,2.0,56,0.00,,,0.00,weatherlink.com 1.10,2014-01-26 14:04:00,
2014-01-26 09:19:00,19.5,6.0,29.87,SE,132,0.0,1.0,55,0.00,,,0.00,weatherlink.com 1.10,2014-01-26 14:19:00,
2014-01-26 09:34:00,19.3,4.0,29.86,East,94,4.0,6.0,52,0.00,,,0.00,weatherlink.com 1.10,2014-01-26 14:34:00,
2014-01-26 09:49:00,18.1,4.0,29.87,SE,142,1.0,7.0,55,0.00,,,0.00,weatherlink.com 1.10,2014-01-26 14:49:00,
2014-01-26 10:04:00,20.3,5.0,29.88,ESE,110,4.0,4.0,51,0.00,,,0.00,weatherlink.com 1.10,2014-01-26 15:04:00,
2014-01-26 10:19:00,20.3,5.0,29.86,SE,128,2.0,4.0,52,0.00,,,0.00,weatherlink.com 1.10,2014-01-26 15:19:00,
2014-01-26 10:34:00,20.7,4.0,29.86,ESE,117,2.0,4.0,49,0.00,,,0.00,weatherlink.com 1.10,2014-01-26 15:34:00,
2014-01-26 10:49:00,23.0,5.0,29.85,South,186,1.0,5.0,47,0.00,,,0.00,weatherlink.com 1.10,2014-01-26 15:49:00,
2014-01-26 11:04:00,23.5,5.0,29.84,SE,136,2.0,6.0,45,0.00,,,0.00,weatherlink.com 1.10,2014-01-26 16:04:00,
2014-01-26 11:19:00,23.6,4.0,29.84,SSE,167,4.0,10.0,43,0.00,,,0.00,weatherlink.com 1.10,2014-01-26 16:19:00,
2014-01-26 11:34:00,22.0,4.0,29.83,SSW,210,2.0,12.0,45,0.00,,,0.00,weatherlink.com 1.10,2014-01-26 16:34:00,
2014-01-26 11:49:00,22.1,4.0,29.83,SE,141,2.0,8.0,45,0.00,,,0.00,weatherlink.com 1.10,2014-01-26 16:49:00,
2014-01-26 12:04:00,22.0,4.0,29.84,West,263,4.0,6.0,45,0.00,,,0.00,weatherlink.com 1.10,2014-01-26 17:04:00,
2014-01-26 12:19:00,22.0,4.0,29.83,South,179,4.0,9.0,46,0.00,,,0.00,weatherlink.com 1.10,2014-01-26 17:19:00,
2014-01-26 12:34:00,22.9,5.0,29.82,SW,228,2.0,8.0,46,0.00,,,0.00,weatherlink.com 1.10,2014-01-26 17:34:00,
2014-01-26 12:49:00,22.9,5.0,29.82,SSE,165,4.0,9.0,46,0.00,,,0.00,weatherlink.com 1.10,2014-01-26 17:49:00,
2014-01-26 13:04:00,23.2,6.0,29.84,SSE,165,2.0,9.0,47,0.00,,,0.00,weatherlink.com 1.10,2014-01-26 18:04:00,
2014-01-26 13:19:00,23.2,5.0,29.83,SSE,152,4.0,10.0,45,0.00,,,0.00,weatherlink.com 1.10,2014-01-26 18:19:00,
2014-01-26 13:34:00,23.1,5.0,29.82,SE,138,6.0,10.0,46,0.00,,,0.00,weatherlink.com 1.10,2014-01-26 18:34:00,
2014-01-26 13:49:00,23.0,4.0,29.80,South,190,8.0,13.0,45,0.00,,,0.00,weatherlink.com 1.10,2014-01-26 18:49:00,
2014-01-26 14:04:00,23.4,5.0,29.79,SW,231,4.0,10.0,46,0.00,,,0.00,weatherlink.com 1.10,2014-01-26 19:04:00,
2014-01-26 14:19:00,24.6,5.0,29.78,SSW,193,4.0,11.0,43,0.00,,,0.00,weatherlink.com 1.10,2014-01-26 19:19:00,
2014-01-26 14:34:00,25.2,5.0,29.76,South,190,8.0,14.0,42,0.00,,,0.00,weatherlink.com 1.10,2014-01-26 19:34:00,
2014-01-26 14:49:00,24.9,5.0,29.76,South,170,4.0,18.0,42,0.00,,,0.00,weatherlink.com 1.10,2014-01-26 19:49:00,
2014-01-26 15:04:00,25.2,5.0,29.76,South,174,7.0,12.0,43,0.00,,,0.00,weatherlink.com 1.10,2014-01-26 20:04:00,
2014-01-26 15:19:00,25.3,7.0,29.75,SSE,153,3.0,10.0,45,0.00,,,0.00,weatherlink.com 1.10,2014-01-26 20:19:00,
2014-01-26 15:34:00,25.4,6.0,29.75,SSW,205,4.0,14.0,44,0.00,,,0.00,weatherlink.com 1.10,2014-01-26 20:34:00,
2014-01-26 15:49:00,25.5,6.0,29.75,South,184,7.0,12.0,44,0.00,,,0.00,weatherlink.com 1.10,2014-01-26 20:49:00,
2014-01-26 16:04:00,25.5,7.0,29.75,SSE,158,4.0,10.0,46,0.00,,,0.00,weatherlink.com 1.10,2014-01-26 21:04:00,
2014-01-26 16:19:00,25.4,7.0,29.75,SE,124,4.0,10.0,46,0.00,,,0.00,weatherlink.com 1.10,2014-01-26 21:19:00,
2014-01-26 16:34:00,25.5,8.0,29.75,SSE,163,4.0,10.0,47,0.00,,,0.00,weatherlink.com 1.10,2014-01-26 21:34:00,
2014-01-26 16:49:00,25.8,8.0,29.76,SSE,155,12.0,12.0,47,0.00,,,0.00,weatherlink.com 1.10,2014-01-26 21:49:00,
2014-01-26 17:04:00,26.1,9.0,29.75,SSE,159,3.0,9.0,48,0.00,,,0.00,weatherlink.com 1.10,2014-01-26 22:04:00,
2014-01-26 17:19:00,26.4,9.0,29.74,ESE,120,5.0,14.0,47,0.00,,,0.00,weatherlink.com 1.10,2014-01-26 22:19:00,
2014-01-26 17:34:00,26.5,9.0,29.74,SSE,149,5.0,12.0,48,0.00,,,0.00,weatherlink.com 1.10,2014-01-26 22:34:00,
2014-01-26 17:49:00,26.8,9.0,29.74,SSW,195,6.0,11.0,47,0.00,,,0.00,weatherlink.com 1.10,2014-01-26 22:49:00,
2014-01-26 18:04:00,27.1,9.0,29.74,SSW,212,7.0,11.0,47,0.00,,,0.00,weatherlink.com 1.10,2014-01-26 23:04:00,
2014-01-26 18:19:00,27.3,9.0,29.74,SSE,162,6.0,14.0,47,0.00,,,0.00,weatherlink.com 1.10,2014-01-26 23:19:00,
2014-01-26 18:34:00,27.5,10.0,29.74,SE,146,7.0,13.0,47,0.00,,,0.00,weatherlink.com 1.10,2014-01-26 23:34:00,
2014-01-26 18:49:00,28.1,9.0,29.74,SSE,149,5.0,10.0,45,0.00,,,0.00,weatherlink.com 1.10,2014-01-26 23:49:00,
2014-01-26 19:04:00,28.9,9.0,29.74,SSW,203,4.0,14.0,43,0.00,,,0.00,weatherlink.com 1.10,2014-01-27 00:04:00,
2014-01-26 19:19:00,29.6,8.0,29.74,SE,139,8.0,12.0,41,0.00,,,0.00,weatherlink.com 1.10,2014-01-27 00:19:00,
2014-01-26 19:35:00,30.0,9.0,29.74,South,172,6.0,15.0,41,0.00,,,0.00,weatherlink.com 1.10,2014-01-27 00:35:00,
2014-01-26 19:50:00,30.4,9.0,29.74,SSE,162,7.0,18.0,41,0.00,,,0.00,weatherlink.com 1.10,2014-01-27 00:50:00,
2014-01-26 20:05:00,30.7,9.0,29.74,SSE,159,8.0,15.0,41,0.00,,,0.00,weatherlink.com 1.10,2014-01-27 01:05:00,
2014-01-26 20:20:00,31.0,9.0,29.74,SSE,147,8.0,15.0,40,0.00,,,0.00,weatherlink.com 1.10,2014-01-27 01:20:00,
2014-01-26 20:35:00,31.1,9.0,29.74,South,173,5.0,18.0,40,0.00,,,0.00,weatherlink.com 1.10,2014-01-27 01:35:00,
2014-01-26 20:50:00,31.4,10.0,29.72,NNE,32,7.0,17.0,40,0.00,,,0.00,weatherlink.com 1.10,2014-01-27 01:50:00,
2014-01-26 21:05:00,31.1,10.0,29.73,South,177,6.0,12.0,41,0.00,,,0.00,weatherlink.com 1.10,2014-01-27 02:05:00,
2014-01-26 21:20:00,30.9,11.0,29.73,SE,138,4.0,9.0,43,0.00,,,0.00,weatherlink.com 1.10,2014-01-27 02:20:00,
2014-01-26 21:35:00,30.7,10.0,29.73,South,176,5.0,9.0,43,0.00,,,0.00,weatherlink.com 1.10,2014-01-27 02:35:00,
2014-01-26 21:50:00,30.6,10.0,29.72,SE,125,3.0,5.0,43,0.00,,,0.00,weatherlink.com 1.10,2014-01-27 02:50:00,
2014-01-26 22:05:00,30.4,11.0,29.71,SE,138,0.0,3.0,44,0.00,,,0.00,weatherlink.com 1.10,2014-01-27 03:05:00,
2014-01-26 22:20:00,30.3,11.0,29.70,SSE,148,2.0,4.0,45,0.00,,,0.00,weatherlink.com 1.10,2014-01-27 03:20:00,
2014-01-26 22:35:00,29.7,11.0,29.70,SSE,148,0.0,1.0,46,0.00,,,0.00,weatherlink.com 1.10,2014-01-27 03:35:00,
2014-01-26 22:50:00,29.1,11.0,29.69,SSE,164,0.0,1.0,46,0.00,,,0.00,weatherlink.com 1.10,2014-01-27 03:50:00,
2014-01-26 23:05:00,28.6,11.0,29.68,SSW,197,0.0,1.0,47,0.00,,,0.00,weatherlink.com 1.10,2014-01-27 04:05:00,
2014-01-26 23:20:00,27.5,10.0,29.68,West,273,0.0,2.0,49,0.00,,,0.00,weatherlink.com 1.10,2014-01-27 04:20:00,
2014-01-26 23:35:00,28.4,11.0,29.68,WSW,250,0.0,1.0,48,0.00,,,0.00,weatherlink.com 1.10,2014-01-27 04:35:00,
2014-01-26 23:50:00,27.4,10.0,29.67,WSW,248,0.0,0.0,49,0.00,,,0.00,weatherlink.com 1.10,2014-01-27 04:50:00,